DELTA 1 DEB, 42589

Orbit data source: Space-Track

DELTA 1 DEB, 42589 is space debris in SSO originally from a launch on Tue, 06 Nov 1973 UTC launched from the Air Force Western Test Range (AFWTR). Debris objects in space refer to the collection of defunct objects orbiting the Earth. Examples of debris include non-operational satellites, rocket bodies, and fragments generated from explosions, collisions, or faulty payload assembly.

Loading next visibility...
Identifier
42589, 1973-086JD
Orbit
SSO
Country
Flag of USUS
Related business
Manufacturer
Unknown
Mission
Spacecraft
Bus & Motor
Unknown
Mass
Unknown
Launch date (UTC)
1973-11-06 (53 years ago)
Launch vehicle
Unknown
Launch site
Air Force Western Test Range (AFWTR)
Object type
Payload
Rocket body
Debris
Shape & HBR
Unknown shape, 0.1 m
Radar Cross Section
Small (<0.1 m²)

Expand to show TLE details & history
Last TLE update: 1 week ago

TLE from 1 week ago
0 DELTA 1 DEB
1 42589U 73086JD  26200.79040882  .00000070  00000-0  30372-3 0  9995
2 42589 102.5829  22.3910 0316793 194.6897 164.4828 13.06646931604133
Epoch: 2026-07-19T18:58Z
TLE epoch observation values (Epoch: 2026-07-19T18:58:11.322Z)
Latitude
0.00001°
Longitude
160.26007°
Altitude
1,471.759 km
Speed
7.017 km/s
True Right ascension
01h 29m 33s
True Declination
0° 00' 00"
Sunlit
Object was in daylight at epoch
Visualization orbit readout
Latitude
Unknown
Longitude
Unknown
Altitude
Unknown
Speed
Unknown
Apparent Right ascension
Unknown
Apparent Declination
Unknown
Sunlit
N/A
Visualization observer readout
Local Sidereal Time
00:10:21
Azimuth
Unknown
Elevation
Unknown
Doppler factor
Unknown
Orbital elements
Apogee altitude
1,474.816 km
Perigee altitude
992.542 km
Semi-major axis
7,611.816 km
Eccentricity
0.03168
Inclination
102.5829°
RAAN
22.391°
Arg. of periapsis
194.6897°
True anomaly
165.41819°
Mean anomaly
164.4828°
Eccentric anomaly
164.95399°
Mean motion
3.26822 °/min
Orbital period
110.15 mins
BSTAR
0.00030372
Loading maneuver chart data...
Computing Atmospheric mass density...
Loading historical data...
Loading historical data...
Loading historical data...
Loading historical data...
Loading historical data...
Loading historical data...
Loading historical data...

Documentation

Showing up to 5 results
|